Skip to main content Skip to accessibility
This website is not compatible with your web browser. You should install a newer browser. If you live in Jersey and need help upgrading call the States of Jersey web team on 440099.
Homegov.je

Information and public services for the Island of Jersey

L'înformâtion et les sèrvices publyis pouor I'Île dé Jèrri

  • Choose the service you want to log in to:

  • gov.je

    Update your notification preferences

  • one.gov.je

    Access government services

  • CAESAR

    Clear goods through customs or claim relief

  • Talentlink

    View or update your States of Jersey job application

CI Airfield TAFs

JERSEY - EGJJ

EGJJ 191957Z 1921/2006 22017KT 9999 FEW015 BKN040 PROB40 TEMPO 1921/2006 8000 -RA BKN015 PROB30 TEMPO 1921/2006 21020G30KT BKN012=

GUERNSEY - EGJB

EGJB 191957Z 1921/2006 22018KT 9999 SCT015 BKN040 PROB40 TEMPO 1921/2006 21022G32KT 8000 -RA BKN015 PROB30 TEMPO 1921/2006 BKN010=

ALDERNEY - EGJA

EGJA 191935Z 1919/2000 CNL=

Back to top
rating button